カタログに戻る

ONEWEB-0382

運用中通信PO
NORAD 49308·PAYLOAD·🇬🇧 United Kingdom

打ち上げ Oct 14, 2021 から Vostochny Cosmodrome

Loading…

次のパス (今後24時間)

TLE

最新Source: CelesTrak SupGP

元期: Sep 14, 2026, 13:29 UTC

1 49308C 21090AF  26257.56196019 -.00000414  00000+0 -10186-2 0  2570
2 49308  87.9139 256.6067 0002268  95.1346  16.4799 13.20773577    10

AllMySatでONEWEB-0382をリアルタイム追跡

Download on the App Store